When you browse on this site, cookies collect data to enhance your experience and personalize the content and advertising you see.
Visit our Privacy Policy to learn more. By continuing to use the site, you agree to this use of cookies and data.
  • In Denmark
  • List of Countries
  • For 7 days
  • Water Temperature
  • Satellite Maps
  • Weather Map
  • Weather Widgets
  • user-avatar
    Login

    Hourly Weather Altuhovo

    Today, 26 May, Sunday

    Time Temperature Precipitation Wind Pressure Humidity
    00:00 +14°C° 0 mm 1 mps 738 mmHg 96%
    01:00 +13°C° 0 mm 1 mps 738 mmHg 96%
    02:00 +13°C° 0 mm 1 mps 738 mmHg 96%
    03:00 +14°C° 0 mm 1 mps 738 mmHg 95%
    04:00 +13°C° 0 mm 0 mps 738 mmHg 95%
    05:00 +14°C° 0 mm 0 mps 738 mmHg 94%
    06:00 +16°C° 0.1 mm 1 mps 738 mmHg 89%
    07:00 +19°C° 0.1 mm 1 mps 738 mmHg 84%
    08:00 +20°C° 0.1 mm 1 mps 738 mmHg 80%
    09:00 +20°C° 0.6 mm 2 mps 738 mmHg 76%
    10:00 +21°C° 0.6 mm 3 mps 738 mmHg 73%
    11:00 +21°C° 0.6 mm 3 mps 738 mmHg 69%
    12:00 +22°C° 0.3 mm 4 mps 738 mmHg 66%
    13:00 +22°C° 0.3 mm 4 mps 738 mmHg 63%
    14:00 +23°C° 0.3 mm 4 mps 738 mmHg 60%
    15:00 +22°C° 0.1 mm 4 mps 738 mmHg 64%
    16:00 +22°C° 0.1 mm 3 mps 738 mmHg 67%
    17:00 +21°C° 0.1 mm 3 mps 738 mmHg 71%
    18:00 +19°C° 0.1 mm 3 mps 738 mmHg 76%
    19:00 +18°C° 0.1 mm 3 mps 739 mmHg 81%
    20:00 +16°C° 0.1 mm 3 mps 739 mmHg 86%
    21:00 +14°C° 0 mm 3 mps 739 mmHg 87%
    22:00 +13°C° 0 mm 3 mps 740 mmHg 89%
    23:00 +12°C° 0 mm 3 mps 740 mmHg 91%

    Tomorrow, 27 May, Monday

    Time Temperature Precipitation Wind Pressure Humidity
    00:00 +11°C° 0 mm 3 mps 740 mmHg 92%
    01:00 +11°C° 0 mm 3 mps 741 mmHg 93%
    02:00 +10°C° 0 mm 3 mps 741 mmHg 94%
    03:00 +10°C° 0 mm 3 mps 741 mmHg 93%
    04:00 +10°C° 0 mm 3 mps 742 mmHg 93%
    05:00 +11°C° 0 mm 3 mps 742 mmHg 92%
    06:00 +12°C° 0 mm 4 mps 743 mmHg 86%
    07:00 +13°C° 0 mm 4 mps 743 mmHg 81%
    08:00 +15°C° 0 mm 4 mps 743 mmHg 75%
    09:00 +17°C° 0 mm 4 mps 744 mmHg 71%
    10:00 +18°C° 0 mm 4 mps 744 mmHg 68%
    11:00 +19°C° 0 mm 4 mps 744 mmHg 64%
    12:00 +20°C° 0 mm 4 mps 744 mmHg 63%
    13:00 +20°C° 0 mm 4 mps 744 mmHg 61%
    14:00 +21°C° 0 mm 5 mps 745 mmHg 59%
    15:00 +21°C° 0 mm 4 mps 745 mmHg 62%
    16:00 +21°C° 0 mm 4 mps 744 mmHg 65%
    17:00 +21°C° 0 mm 3 mps 744 mmHg 68%
    18:00 +19°C° 0 mm 3 mps 745 mmHg 74%
    19:00 +18°C° 0 mm 3 mps 745 mmHg 79%
    20:00 +16°C° 0 mm 3 mps 745 mmHg 85%
    21:00 +16°C° 0 mm 3 mps 745 mmHg 87%
    22:00 +14°C° 0 mm 3 mps 745 mmHg 90%
    23:00 +14°C° 0 mm 3 mps 745 mmHg 92%

    Day after tomorrow, 28 May, Tuesday

    Time Temperature Precipitation Wind Pressure Humidity
    00:00 +14°C° 0 mm 3 mps 746 mmHg 93%
    01:00 +14°C° 0 mm 3 mps 746 mmHg 94%
    02:00 +14°C° 0 mm 3 mps 746 mmHg 95%
    03:00 +14°C° 0 mm 3 mps 746 mmHg 95%
    04:00 +16°C° 0 mm 3 mps 746 mmHg 94%
    05:00 +15°C° 0 mm 4 mps 746 mmHg 94%
    06:00 +18°C° 0 mm 4 mps 746 mmHg 90%
    07:00 +20°C° 0 mm 4 mps 746 mmHg 86%
    08:00 +21°C° 0 mm 4 mps 747 mmHg 81%
    09:00 +23°C° 0 mm 5 mps 747 mmHg 77%
    10:00 +25°C° 0 mm 5 mps 747 mmHg 72%
    11:00 +26°C° 0 mm 5 mps 747 mmHg 67%
    12:00 +26°C° 0.2 mm 5 mps 747 mmHg 67%
    13:00 +26°C° 0.2 mm 6 mps 746 mmHg 66%
    14:00 +27°C° 0.2 mm 6 mps 746 mmHg 66%
    15:00 +26°C° 0 mm 5 mps 746 mmHg 68%
    16:00 +26°C° 0 mm 5 mps 746 mmHg 70%
    17:00 +26°C° 0 mm 4 mps 746 mmHg 72%
    18:00 +23°C° 0 mm 4 mps 746 mmHg 77%
    19:00 +21°C° 0 mm 4 mps 746 mmHg 82%
    20:00 +20°C° 0 mm 3 mps 746 mmHg 87%
    21:00 +19°C° 0 mm 3 mps 747 mmHg 89%
    22:00 +18°C° 0 mm 3 mps 747 mmHg 91%
    23:00 +18°C° 0 mm 3 mps 747 mmHg 92%

    29 May, Wednesday

    Time Temperature Precipitation Wind Pressure Humidity
    00:00 +18°C° 0 mm 3 mps 747 mmHg 93%
    01:00 +17°C° 0 mm 3 mps 747 mmHg 93%
    02:00 +17°C° 0 mm 3 mps 747 mmHg 93%
    03:00 +18°C° 0 mm 3 mps 747 mmHg 92%
    04:00 +18°C° 0 mm 3 mps 747 mmHg 90%
    05:00 +18°C° 0 mm 3 mps 747 mmHg 89%
    06:00 +20°C° 0 mm 4 mps 748 mmHg 84%
    07:00 +21°C° 0 mm 4 mps 748 mmHg 79%
    08:00 +23°C° 0 mm 5 mps 748 mmHg 74%
    09:00 +25°C° 0 mm 5 mps 748 mmHg 71%
    10:00 +26°C° 0 mm 6 mps 748 mmHg 67%
    11:00 +27°C° 0 mm 6 mps 748 mmHg 64%
    12:00 +27°C° 0 mm 6 mps 748 mmHg 63%
    13:00 +27°C° 0 mm 6 mps 748 mmHg 63%
    14:00 +28°C° 0 mm 6 mps 747 mmHg 62%
    15:00 +27°C° 0 mm 5 mps 747 mmHg 66%
    16:00 +27°C° 0 mm 4 mps 747 mmHg 69%
    17:00 +26°C° 0 mm 3 mps 747 mmHg 73%
    18:00 +25°C° 0 mm 3 mps 747 mmHg 78%
    19:00 +22°C° 0 mm 3 mps 747 mmHg 83%
    20:00 +21°C° 0 mm 3 mps 747 mmHg 89%
    21:00 +20°C° 0 mm 3 mps 747 mmHg 90%
    22:00 +19°C° 0 mm 3 mps 747 mmHg 92%
    23:00 +19°C° 0 mm 3 mps 747 mmHg 93%

    30 May, Thursday

    Time Temperature Precipitation Wind Pressure Humidity
    00:00 +18°C° 0 mm 3 mps 747 mmHg 93%
    01:00 +18°C° 0 mm 3 mps 747 mmHg 94%
    02:00 +18°C° 0 mm 3 mps 747 mmHg 95%
    03:00 +18°C° 0 mm 3 mps 747 mmHg 93%
    04:00 +18°C° 0 mm 3 mps 747 mmHg 92%
    05:00 +18°C° 0 mm 4 mps 748 mmHg 91%
    06:00 +20°C° 0 mm 4 mps 748 mmHg 85%
    07:00 +21°C° 0 mm 4 mps 748 mmHg 80%
    08:00 +23°C° 0 mm 5 mps 748 mmHg 75%
    09:00 +25°C° 0 mm 5 mps 747 mmHg 70%
    10:00 +26°C° 0 mm 6 mps 747 mmHg 65%
    11:00 +27°C° 0 mm 6 mps 747 mmHg 60%
    12:00 +27°C° 0 mm 6 mps 747 mmHg 60%
    13:00 +27°C° 0 mm 6 mps 747 mmHg 60%
    14:00 +28°C° 0 mm 6 mps 747 mmHg 59%
    15:00 +27°C° 0 mm 5 mps 746 mmHg 63%
    16:00 +27°C° 0 mm 5 mps 746 mmHg 67%
    17:00 +27°C° 0 mm 4 mps 746 mmHg 71%
    18:00 +25°C° 0 mm 4 mps 746 mmHg 75%
    19:00 +23°C° 0 mm 4 mps 746 mmHg 78%
    20:00 +21°C° 0 mm 3 mps 746 mmHg 82%
    21:00 +21°C° 0 mm 3 mps 746 mmHg 83%
    22:00 +20°C° 0 mm 4 mps 746 mmHg 84%
    23:00 +19°C° 0 mm 4 mps 746 mmHg 84%

    31 May, Friday

    Time Temperature Precipitation Wind Pressure Humidity
    00:00 +19°C° 0 mm 4 mps 746 mmHg 85%
    01:00 +19°C° 0 mm 4 mps 746 mmHg 86%
    02:00 +19°C° 0 mm 4 mps 746 mmHg 87%
    03:00 +19°C° 0 mm 4 mps 746 mmHg 87%
    04:00 +19°C° 0 mm 4 mps 746 mmHg 87%
    05:00 +19°C° 0 mm 4 mps 746 mmHg 87%
    06:00 +21°C° 0 mm 4 mps 746 mmHg 83%
    07:00 +22°C° 0 mm 4 mps 746 mmHg 79%
    08:00 +23°C° 0 mm 4 mps 746 mmHg 75%
    09:00 +25°C° 0.5 mm 4 mps 746 mmHg 72%
    10:00 +26°C° 0.5 mm 5 mps 746 mmHg 69%
    11:00 +27°C° 0.5 mm 5 mps 746 mmHg 66%
    12:00 +27°C° 1.1 mm 4 mps 746 mmHg 67%
    13:00 +26°C° 1.1 mm 4 mps 746 mmHg 68%
    14:00 +26°C° 1.1 mm 3 mps 746 mmHg 69%
    15:00 +25°C° 0.6 mm 3 mps 746 mmHg 74%
    16:00 +25°C° 0.6 mm 3 mps 747 mmHg 78%
    17:00 +24°C° 0.6 mm 3 mps 747 mmHg 83%
    18:00 +21°C° 0.9 mm 3 mps 747 mmHg 87%
    19:00 +20°C° 0.9 mm 3 mps 748 mmHg 91%
    20:00 +18°C° 0.9 mm 4 mps 748 mmHg 95%
    21:00 +17°C° 0.1 mm 4 mps 748 mmHg 95%
    22:00 +15°C° 0.1 mm 4 mps 748 mmHg 95%
    23:00 +14°C° 0.1 mm 4 mps 749 mmHg 95%
    Show more